| time (UTC) | temp F | wind direction | speed knots | gust knots | rain 1hr in | rain 24hr in | rain mn in | humidity % | barometer mb |
| 20260502230047 | 46 | 315 | 3.5 | 7.8 | 0.00 | 0.00 | 0.00 | 51 | 1016.1 |
| 20260502224545 | 46 | 302 | 3.5 | 7.8 | 0.00 | 0.00 | 0.00 | 51 | 1016.0 |
| 20260502223056 | 46 | 298 | 2.6 | 9.6 | 0.00 | 0.00 | 0.00 | 50 | 1016.0 |
| 20260502221548 | 46 | 289 | 3.5 | 10.4 | 0.00 | 0.00 | 0.00 | 50 | 1016.1 |
| 20260502220059 | 46 | 298 | 4.3 | 10.4 | 0.00 | 0.00 | 0.00 | 50 | 1015.9 |
| 20260502214605 | 46 | 311 | 2.6 | 7.8 | 0.00 | 0.00 | 0.00 | 50 | 1016.1 |
| 20260502213104 | 46 | 309 | 5.2 | 12.2 | 0.00 | 0.00 | 0.00 | 48 | 1016.1 |
| 20260502211557 | 46 | 300 | 4.3 | 10.4 | 0.00 | 0.00 | 0.00 | 50 | 1016.1 |
| 20260502210048 | 47 | 305 | 7.0 | 13.0 | 0.00 | 0.00 | 0.00 | 47 | 1016.2 |
| 20260502204543 | 47 | 303 | 5.2 | 10.4 | 0.00 | 0.00 | 0.00 | 52 | 1016.2 |
| 20260502203109 | 46 | 314 | 4.3 | 11.3 | 0.00 | 0.00 | 0.00 | 50 | 1016.3 |
| 20260502201547 | 46 | 296 | 6.1 | 12.2 | 0.00 | 0.00 | 0.00 | 49 | 1016.5 |
| 20260502200054 | 46 | 253 | 4.3 | 12.2 | 0.00 | 0.00 | 0.00 | 49 | 1016.6 |
| 20260502194544 | 46 | 318 | 5.2 | 17.4 | 0.00 | 0.00 | 0.00 | 47 | 1016.8 |
| 20260502193047 | 46 | 313 | 5.2 | 12.2 | 0.00 | 0.00 | 0.00 | 49 | 1016.8 |
| 20260502191547 | 47 | 290 | 4.3 | 13.0 | 0.00 | 0.00 | 0.00 | 47 | 1017.0 |
| 20260502190049 | 46 | 312 | 9.6 | 15.6 | 0.00 | 0.00 | 0.00 | 47 | 1017.1 |
| 20260502184547 | 47 | 311 | 7.0 | 12.2 | 0.00 | 0.00 | 0.00 | 49 | 1017.1 |
| 20260502183047 | 45 | 312 | 2.6 | 13.9 | 0.00 | 0.00 | 0.00 | 46 | 1017.1 |
| 20260502181549 | 45 | 308 | 7.8 | 14.8 | 0.00 | 0.00 | 0.00 | 46 | 1017.4 |
| 20260502163102 | 45 | 265 | 3.5 | 11.3 | 0.00 | 0.00 | 0.00 | 48 | 1018.0 |
| 20260502161604 | 43 | 329 | 6.1 | 11.3 | 0.00 | 0.00 | 0.00 | 53 | 1018.1 |
| 20260502151555 | 43 | 298 | 6.1 | 10.4 | 0.00 | 0.00 | 0.00 | 52 | 1018.0 |
| 20260502123109 | 37 | 313 | 4.3 | 8.7 | 0.00 | 0.00 | 0.00 | 72 | 1017.9 |
| 20260502121554 | 37 | 338 | 4.3 | 9.6 | 0.00 | 0.00 | 0.00 | 75 | 1018.0 |
| 20260502120110 | 36 | 294 | 5.2 | 9.6 | 0.00 | 0.00 | 0.00 | 76 | 1017.8 |
| 20260502114543 | 35 | 360 | 4.3 | 8.7 | 0.00 | 0.00 | 0.00 | 77 | 1017.9 |
| 20260502113054 | 34 | 317 | 3.5 | 7.8 | 0.00 | 0.00 | 0.00 | 80 | 1017.7 |
| 20260502111547 | 33 | 311 | 1.7 | 6.1 | 0.00 | 0.00 | 0.00 | 82 | 1017.6 |
| 20260502110044 | 32 | 315 | 2.6 | 4.3 | 0.00 | 0.00 | 0.00 | 82 | 1017.4 |
| 20260502104546 | 32 | 304 | 2.6 | 4.3 | 0.00 | 0.00 | 0.00 | 81 | 1017.5 |
| 20260502103045 | 33 | 302 | 1.7 | 3.5 | 0.00 | 0.00 | 0.00 | 80 | 1017.5 |
| 20260502101546 | 33 | 306 | 1.7 | 3.5 | 0.00 | 0.00 | 0.00 | 79 | 1017.5 |
| 20260502080108 | 37 | 305 | 2.6 | 6.1 | 0.00 | 0.00 | 0.00 | 70 | 1016.7 |
| 20260502070101 | 38 | 287 | 2.6 | 7.0 | 0.00 | 0.00 | 0.00 | 67 | 1016.6 |
| 20260502064550 | 39 | 350 | 3.5 | 10.4 | 0.00 | 0.00 | 0.00 | 66 | 1016.7 |
| 20260502063045 | 39 | 327 | 4.3 | 7.8 | 0.00 | 0.00 | 0.00 | 67 | 1016.8 |
| 20260502061547 | 39 | 323 | 3.5 | 7.0 | 0.00 | 0.00 | 0.00 | 69 | 1016.9 |
| 20260502060052 | 39 | 321 | 2.6 | 6.1 | 0.00 | 0.00 | 0.00 | 68 | 1016.9 |
| 20260502054551 | 39 | 313 | 1.7 | 4.3 | 0.00 | 0.00 | 0.00 | 68 | 1017.1 |
| 20260502053053 | 39 | 317 | 3.5 | 7.8 | 0.00 | 0.00 | 0.00 | 66 | 1017.0 |
| 20260502051600 | 39 | 343 | 3.5 | 8.7 | 0.00 | 0.00 | 0.00 | 66 | 1017.0 |
| 20260502050047 | 40 | 326 | 4.3 | 9.6 | 0.00 | 0.00 | 0.00 | 67 | 1017.0 |
| 20260502044546 | 40 | 301 | 4.3 | 11.3 | 0.00 | 0.00 | 0.00 | 67 | 1016.9 |
| 20260502043048 | 40 | 329 | 3.5 | 13.0 | 0.00 | 0.00 | 0.00 | 68 | 1016.7 |
| 20260502041545 | 40 | 334 | 6.1 | 9.6 | 0.00 | 0.00 | 0.00 | 67 | 1016.6 |
| 20260502034547 | 39 | 326 | 3.5 | 7.8 | 0.00 | 0.00 | 0.00 | 72 | 1016.3 |
| 20260502033048 | 39 | 332 | 2.6 | 7.0 | 0.00 | 0.00 | 0.00 | 75 | 1016.4 |
| 20260502031546 | 39 | 307 | 3.5 | 7.8 | 0.00 | 0.00 | 0.00 | 75 | 1016.4 |
| 20260502030047 | 39 | 0 | 0.0 | 0.0 | 0.00 | 0.00 | 0.00 | 73 | 1016.1 |
| 20260502024544 | 40 | 313 | 0.0 | 2.6 | 0.00 | 0.00 | 0.00 | 73 | 1016.2 |
| 20260502023045 | 40 | 313 | 0.9 | 3.5 | 0.00 | 0.00 | 0.00 | 72 | 1016.1 |
| 20260502021544 | 40 | 336 | 2.6 | 8.7 | 0.00 | 0.00 | 0.00 | 72 | 1016.2 |
| 20260502020047 | 41 | 338 | 4.3 | 12.2 | 0.00 | 0.00 | 0.00 | 71 | 1016.2 |
| 20260502014545 | 41 | 293 | 4.3 | 11.3 | 0.00 | 0.00 | 0.00 | 71 | 1016.0 |
| 20260502013045 | 41 | 307 | 5.2 | 11.3 | 0.00 | 0.00 | 0.00 | 70 | 1015.9 |
| 20260502011546 | 41 | 308 | 6.1 | 11.3 | 0.00 | 0.00 | 0.00 | 71 | 1015.8 |
| 20260502010052 | 42 | 333 | 5.2 | 12.2 | 0.00 | 0.00 | 0.00 | 72 | 1015.7 |
| 20260502004546 | 42 | 310 | 3.5 | 9.6 | 0.00 | 0.00 | 0.00 | 71 | 1015.6 |
| 20260502003050 | 42 | 338 | 2.6 | 7.8 | 0.00 | 0.00 | 0.00 | 71 | 1015.6 |
| 20260502001553 | 42 | 329 | 3.5 | 8.7 | 0.00 | 0.00 | 0.00 | 69 | 1015.5 |
| 20260502000049 | 43 | 311 | 2.6 | 11.3 | 0.00 | 0.00 | 0.00 | 69 | 1015.3 |
| 20260501234547 | 43 | 329 | 4.3 | 9.6 | 0.00 | 0.00 | 0.00 | 68 | 1015.3 |
| 20260501233048 | 43 | 318 | 5.2 | 12.2 | 0.00 | 0.00 | 0.00 | 67 | 1015.1 |
| 20260501231554 | 43 | 324 | 5.2 | 13.0 | 0.00 | 0.00 | 0.00 | 66 | 1015.1 |